Theta_e
325 325 325 325 324 324 323 324 324 322 322 321 321 320 320 319 317 316 315 314 314 314
324 324 325 325 325 325 325 325 324 323 321 321 321 321 320 318 318 317 316 315 315 315
321 323 325 325 325 325 326 326 324 323 322 321 321 320 320 319 319 318 318 317 316 316
307 315 322 324 325 325 326 326 325 324 322 322 321 320 319 319 319 318 318 318 317 317
301 304 308 316 323 325 325 326 326 325 324 322 322 321 319 318 318 318 317 318 318 317
296 299 301 303 307 314 321 324 326 326 324 323 322 321 321 320 319 318 318 318 318 318
293 296 296 299 302 306 311 316 322 325 325 324 324 323 321 320 320 319 319 319 319 318
291 292 291 293 295 298 302 308 314 319 323 324 324 323 322 321 320 319 319 319 319 319
287 287 288 288 289 291 294 299 304 310 316 319 321 312 307 315 321 319 318 318 318 318
283 283 284 285 286 287 290 293 296 301 307 312 317 308 304 302 318 320 319 318 318 317
279 281 282 282 283 285 287 289 291 294 299 304 308 304 304 300 312 318 320 320 318 317
277 278 279 280 282 284 286 287 289 291 293 296 300 300 300 301 311 313 315 318 319 317
276 276 276 278 281 284 285 286 287 288 290 291 294 297 297 300 306 308 309 309 309 297
274 274 275 277 280 283 285 286 286 287 289 290 292 295 296 298 301 304 306 305 304 301
Wind_Speed
16 12 12 13 11 11 12 13 12 12 15 17 18 16 16 13 14 16 15 20 17 13
11 12 13 14 13 11 13 12 13 15 17 18 18 19 17 14 16 15 16 17 18 15
9 9 12 13 14 14 14 15 14 15 17 17 19 18 18 15 17 17 15 14 17 17
13 13 10 11 14 15 15 16 16 16 16 18 18 18 17 18 19 20 19 18 18 20
15 14 13 13 14 13 15 16 17 17 17 18 18 17 19 20 18 20 20 21 20 20
16 16 17 16 16 15 15 14 16 16 18 18 18 18 20 21 21 21 21 21 21 21
17 17 17 17 17 16 15 16 15 16 18 18 18 18 19 20 20 20 19 20 20 20
16 16 17 17 17 18 16 14 15 16 16 16 16 14 18 19 19 19 20 20 20 21
16 17 17 17 18 18 17 16 15 14 15 16 13 16 19 19 17 19 20 20 20 20
17 17 17 17 17 17 17 17 16 16 15 16 17 16 16 19 18 18 17 20 19 17
18 19 18 19 17 17 16 17 17 17 17 16 15 16 17 17 17 19 22 21 20 19
18 20 20 20 20 19 17 17 16 16 19 18 18 16 17 13 14 17 22 20 19 18
18 19 20 20 20 18 16 17 14 18 16 20 20 20 17 14 11 17 14 14 16 18
18 19 19 19 18 19 17 17 17 17 17 19 18 18 20 17 14 13 12 12 11 10
Wind_Direction
231 231 235 236 234 234 232 229 228 213 216 223 228 223 222 220 217 216 218 223 222 226
245 241 245 243 241 241 242 239 224 213 210 214 221 225 219 222 223 221 220 222 224 222
294 268 257 251 248 242 243 242 233 221 216 214 217 219 218 223 226 223 222 223 223 224
332 324 289 261 254 248 245 242 238 231 224 220 219 218 217 220 224 223 225 225 225 227
336 335 324 307 286 270 257 250 244 238 231 226 224 215 217 220 222 225 225 224 225 228
342 341 335 326 315 303 287 267 254 244 240 236 229 223 221 221 223 225 229 227 224 227
337 337 336 327 323 316 309 297 280 259 249 242 237 230 225 226 226 227 229 227 226 227
328 334 330 328 327 322 315 305 297 287 269 256 243 236 229 226 228 226 229 231 230 229
335 332 328 327 325 321 315 312 303 293 280 269 257 243 229 225 226 232 232 236 232 229
333 324 324 321 320 317 318 314 305 296 287 277 271 261 240 236 240 238 233 234 234 230
327 322 322 319 318 317 315 313 308 300 292 284 277 272 263 233 238 247 244 238 235 232
325 320 320 318 318 315 308 306 303 299 295 287 280 274 271 253 253 247 245 244 240 234
319 316 312 310 308 308 300 299 301 296 288 283 281 278 269 268 268 255 250 246 245 226
317 312 306 304 303 300 302 300 300 298 297 293 284 282 279 266 263 263 259 244 237 233